Weather History for KLMT - May, 2014

Change the Weather History Date:

Saturday, May 3, 2014

  Actual Average Record
Temperature  
Mean Temperature 52 °F 48 °F  
Max Temperature 68 °F 62 °F 82 °F (1992)
Min Temperature 35 °F 34 °F 23 °F (1959)
Degree Days  
Heating Degree Days 13 17  
Month to date heating degree days 28 52  
Since 1 July heating degree days 6115 6371  
Cooling Degree Days 0 0  
Month to date cooling degree days 0 0  
Year to date cooling degree days 0 0  
Growing Degree Days 2 (Base 50)    
Moisture  
Dew Point 36 °F    
Average Humidity 59    
Maximum Humidity 92    
Minimum Humidity 27    
Precipitation  
Precipitation 0.00 in 0.07 in 0.58 in (1986)
Month to date precipitation 0.00 0.21  
Year to date precipitation 4.79 6.62  
Sea Level Pressure  
Sea Level Pressure 29.85 in    
Wind  
Wind Speed 9 mph (West)    
Max Wind Speed 22 mph    
Max Gust Speed 27 mph    
Visibility 10 miles    
Events      
T = Trace of Precipitation, MM = Missing Value Source: NWS Daily Summary

Daily Weather History Graph

Daily Weather History Graph

Search for Another Location

Airport or City:

Trip Planner

Search our weather history database for the weather conditions in past years. The results will help you decide how hot, cold, wet, or windy it might be!

Date:

Astronomy

May. 03, 2014 Rise Set
Actual Time 5:59 AM PDT 8:08 PM PDT
Civil Twilight 5:29 AM PDT 8:39 PM PDT
Nautical Twilight 4:51 AM PDT 9:17 PM PDT
Astronomical Twilight 4:09 AM PDT 9:58 PM PDT
Moon 9:33 AM PDT (5/3) No Moon Set
Length of Visible Light 15h 10m
Length of Day
14h 08m
Waxing Crescent, 20% of the Moon is Illuminated
May 3
Waxing Crescent
May 6
First Quarter
May 14
Full
May 21
Last Quarter
May 28
New

Hourly Weather History & Observations

Time (PDT) Temp. Windchill Dew Point Humidity Pressure Visibility Wind Dir Wind Speed Gust Speed Precip Events Conditions
12:53 AM 46.0 °F - 39.0 °F 76% 29.91 in 10.0 mi Calm Calm - N/A   Clear
1:53 AM 39.0 °F - 35.1 °F 86% 29.90 in 10.0 mi Calm Calm - N/A   Clear
3:53 AM 41.0 °F 37.1 °F 37.0 °F 86% 29.88 in 10.0 mi WSW 5.8 mph - N/A   Clear
4:53 AM 41.0 °F 37.1 °F 36.0 °F 82% 29.89 in 10.0 mi WNW 5.8 mph - N/A   Clear
5:53 AM 36.0 °F - 34.0 °F 93% 29.90 in 10.0 mi Calm Calm - N/A   Clear
6:53 AM 42.1 °F 37.7 °F 37.9 °F 85% 29.90 in 10.0 mi SW 6.9 mph - N/A   Clear
7:53 AM 48.0 °F - 39.0 °F 71% 29.89 in 10.0 mi WNW 4.6 mph - N/A   Clear
8:53 AM 50.0 °F - 39.0 °F 66% 29.89 in 10.0 mi NW 4.6 mph - N/A   Clear
9:53 AM 54.0 °F - 39.9 °F 59% 29.89 in 10.0 mi WSW 8.1 mph - N/A   Clear
10:53 AM 55.9 °F - 39.0 °F 53% 29.89 in 10.0 mi WSW 8.1 mph - N/A   Clear
11:53 AM 59.0 °F - 37.9 °F 46% 29.88 in 10.0 mi WSW 10.4 mph - N/A   Clear
1:53 PM 64.0 °F - 35.1 °F 34% 29.83 in 10.0 mi West 10.4 mph 17.3 mph N/A   Partly Cloudy
2:53 PM 66.0 °F - 34.0 °F 30% 29.81 in 10.0 mi West 15.0 mph - N/A   Clear
3:53 PM 68.0 °F - 34.0 °F 28% 29.77 in 10.0 mi West 17.3 mph 23.0 mph N/A   Clear
4:53 PM 66.0 °F - 33.1 °F 29% 29.77 in 10.0 mi WNW 15.0 mph 24.2 mph N/A   Clear
5:53 PM 64.9 °F - 34.0 °F 32% 29.77 in 10.0 mi West 17.3 mph 24.2 mph N/A   Clear
6:53 PM 61.0 °F - 34.0 °F 36% 29.77 in 10.0 mi West 19.6 mph - N/A   Clear
7:53 PM 55.0 °F - 36.0 °F 49% 29.79 in 10.0 mi WNW 15.0 mph - N/A   Partly Cloudy
8:53 PM 51.1 °F - 36.0 °F 56% 29.83 in 10.0 mi West 9.2 mph - N/A   Scattered Clouds
9:53 PM 46.0 °F 41.9 °F 35.1 °F 66% 29.85 in 10.0 mi WNW 8.1 mph - N/A   Clear
10:53 PM 45.0 °F - 35.1 °F 68% 29.85 in 10.0 mi Calm Calm - N/A   Clear
11:53 PM 45.0 °F 42.6 °F 34.0 °F 65% 29.85 in 10.0 mi NNW 4.6 mph - N/A   Clear